When you browse on this site, cookies collect data to enhance your experience and personalize the content and advertising you see.
Visit our Privacy Policy to learn more. By continuing to use the site, you agree to this use of cookies and data.
  • In Hungary
  • List of Countries
  • For 7 days
  • Water Temperature
  • Weather Map
  • News
  • Weather Widgets
  • user-avatar
    Login

    Hourly Weather Zanesville

    Today, 12 December, Thursday

    Time Temperature Precipitation Wind Pressure Humidity
    00:00 -4°C° 0 mm 1 mps 755 mmHg 77%
    01:00 -4°C° 0 mm 1 mps 756 mmHg 76%
    02:00 -4°C° 0 mm 1 mps 756 mmHg 76%
    03:00 -6°C° 0 mm 1 mps 755 mmHg 76%
    04:00 -6°C° 0 mm 1 mps 755 mmHg 77%
    05:00 -4°C° 0 mm 1 mps 756 mmHg 77%
    06:00 -4°C° 0 mm 1 mps 756 mmHg 78%
    07:00 -4°C° 0 mm 1 mps 756 mmHg 79%
    08:00 -5°C° 0 mm 2 mps 756 mmHg 74%
    09:00 -4°C° 0 mm 2 mps 755 mmHg 69%
    10:00 -2°C° 0 mm 2 mps 755 mmHg 64%
    11:00 -1°C° 0 mm 2 mps 755 mmHg 60%
    12:00 +1°C° 0 mm 2 mps 754 mmHg 56%
    13:00 +3°C° 0 mm 2 mps 753 mmHg 53%
    14:00 +3°C° 0 mm 2 mps 752 mmHg 56%
    15:00 +2°C° 0 mm 2 mps 752 mmHg 59%
    16:00 +2°C° 0 mm 2 mps 751 mmHg 62%
    17:00 +2°C° 0 mm 2 mps 750 mmHg 65%
    18:00 +1°C° 0 mm 2 mps 750 mmHg 67%
    19:00 -1°C° 0 mm 2 mps 750 mmHg 70%
    20:00 -1°C° 0 mm 3 mps 749 mmHg 71%
    21:00 -1°C° 0 mm 3 mps 749 mmHg 72%
    22:00 -1°C° 0 mm 3 mps 748 mmHg 73%
    23:00 -1°C° 0 mm 3 mps 748 mmHg 74%

    Tomorrow, 13 December, Friday

    Time Temperature Precipitation Wind Pressure Humidity
    00:00 -1°C° 0 mm 3 mps 748 mmHg 75%
    01:00 -1°C° 0 mm 3 mps 748 mmHg 76%
    02:00 -1°C° 0 mm 3 mps 747 mmHg 76%
    03:00 -2°C° 0 mm 3 mps 747 mmHg 77%
    04:00 -2°C° 0 mm 2 mps 746 mmHg 78%
    05:00 -2°C° 0 mm 3 mps 746 mmHg 75%
    06:00 -1°C° 0 mm 3 mps 746 mmHg 73%
    07:00 -1°C° 0 mm 3 mps 746 mmHg 71%
    08:00 0°C° 0 mm 3 mps 745 mmHg 70%
    09:00 +1°C° 0 mm 2 mps 745 mmHg 69%
    10:00 +2°C° 0 mm 2 mps 745 mmHg 68%
    11:00 +3°C° 0 mm 2 mps 744 mmHg 69%
    12:00 +3°C° 0 mm 2 mps 743 mmHg 71%
    13:00 +4°C° 0 mm 2 mps 742 mmHg 72%
    14:00 +4°C° 0 mm 2 mps 741 mmHg 77%
    15:00 +4°C° 0 mm 2 mps 740 mmHg 82%
    16:00 +5°C° 0 mm 1 mps 739 mmHg 87%
    17:00 +5°C° 0.7 mm 1 mps 739 mmHg 91%
    18:00 +4°C° 0.7 mm 1 mps 739 mmHg 95%
    19:00 +4°C° 0.7 mm 1 mps 739 mmHg 98%
    20:00 +4°C° 1.2 mm 1 mps 738 mmHg 98%
    21:00 +4°C° 1.2 mm 1 mps 737 mmHg 99%
    22:00 +5°C° 1.2 mm 1 mps 736 mmHg 99%
    23:00 +4°C° 0.5 mm 0 mps 736 mmHg 99%

    Day after tomorrow, 14 December, Saturday

    Time Temperature Precipitation Wind Pressure Humidity
    00:00 +4°C° 0.5 mm 0 mps 735 mmHg 99%
    01:00 +4°C° 0.5 mm 0 mps 735 mmHg 99%
    02:00 +4°C° 0.2 mm 0 mps 734 mmHg 99%
    03:00 +4°C° 0.2 mm 0 mps 733 mmHg 99%
    04:00 +4°C° 0.2 mm 0 mps 733 mmHg 99%
    05:00 +5°C° 0 mm 1 mps 733 mmHg 98%
    06:00 +5°C° 0 mm 1 mps 733 mmHg 98%
    07:00 +5°C° 0 mm 1 mps 732 mmHg 98%
    08:00 +6°C° 0 mm 1 mps 732 mmHg 96%
    09:00 +6°C° 0 mm 1 mps 732 mmHg 94%
    10:00 +7°C° 0 mm 1 mps 732 mmHg 92%
    11:00 +7°C° 0 mm 1 mps 731 mmHg 91%
    12:00 +6°C° 0 mm 2 mps 731 mmHg 89%
    13:00 +7°C° 0 mm 2 mps 731 mmHg 88%
    14:00 +7°C° 0 mm 2 mps 730 mmHg 87%
    15:00 +5°C° 0 mm 3 mps 730 mmHg 86%
    16:00 +5°C° 0 mm 3 mps 730 mmHg 85%
    17:00 +5°C° 0.9 mm 3 mps 730 mmHg 88%
    18:00 +4°C° 0.9 mm 3 mps 730 mmHg 90%
    19:00 +4°C° 0.9 mm 3 mps 731 mmHg 92%
    20:00 +3°C° 0.3 mm 4 mps 731 mmHg 92%
    21:00 +2°C° 0.3 mm 5 mps 731 mmHg 93%
    22:00 +2°C° 0.3 mm 6 mps 732 mmHg 93%
    23:00 +2°C° 0.1 mm 6 mps 732 mmHg 90%

    15 December, Sunday

    Time Temperature Precipitation Wind Pressure Humidity
    00:00 +1°C° 0.1 mm 6 mps 733 mmHg 87%
    01:00 +1°C° 0.1 mm 6 mps 734 mmHg 84%
    02:00 -1°C° 0 mm 6 mps 735 mmHg 85%
    03:00 -1°C° 0 mm 6 mps 735 mmHg 85%
    04:00 -2°C° 0 mm 6 mps 736 mmHg 85%
    05:00 -2°C° 0 mm 5 mps 737 mmHg 84%
    06:00 -4°C° 0 mm 5 mps 738 mmHg 82%
    07:00 -4°C° 0 mm 5 mps 739 mmHg 80%
    08:00 -4°C° 0 mm 5 mps 740 mmHg 78%
    09:00 -5°C° 0 mm 5 mps 741 mmHg 76%
    10:00 -4°C° 0 mm 4 mps 742 mmHg 74%
    11:00 -3°C° 0 mm 4 mps 742 mmHg 72%
    12:00 -2°C° 0 mm 4 mps 742 mmHg 69%
    13:00 -1°C° 0 mm 4 mps 743 mmHg 67%
    14:00 -1°C° 0 mm 4 mps 743 mmHg 67%
    15:00 0°C° 0 mm 3 mps 743 mmHg 66%
    16:00 0°C° 0 mm 3 mps 744 mmHg 66%
    17:00 -1°C° 0 mm 2 mps 744 mmHg 71%
    18:00 -2°C° 0 mm 2 mps 745 mmHg 75%
    19:00 0°C° 0 mm 1 mps 745 mmHg 80%
    20:00 -1°C° 0 mm 1 mps 745 mmHg 81%
    21:00 -2°C° 0 mm 0 mps 746 mmHg 81%
    22:00 -2°C° 0 mm 0 mps 746 mmHg 82%
    23:00 -2°C° 0 mm 0 mps 746 mmHg 81%

    16 December, Monday

    Time Temperature Precipitation Wind Pressure Humidity
    00:00 -2°C° 0 mm 0 mps 746 mmHg 81%
    01:00 -2°C° 0 mm 0 mps 746 mmHg 80%
    02:00 -1°C° 0 mm 1 mps 746 mmHg 80%
    03:00 -1°C° 0 mm 1 mps 746 mmHg 80%
    04:00 -1°C° 0 mm 1 mps 746 mmHg 80%
    05:00 -3°C° 0 mm 2 mps 746 mmHg 80%
    06:00 -3°C° 0 mm 2 mps 746 mmHg 79%
    07:00 -4°C° 0 mm 3 mps 745 mmHg 79%
    08:00 -2°C° 0.3 mm 3 mps 745 mmHg 83%
    09:00 -2°C° 0.3 mm 3 mps 744 mmHg 87%
    10:00 -2°C° 0.3 mm 3 mps 744 mmHg 91%
    11:00 -1°C° 1.3 mm 3 mps 743 mmHg 92%
    12:00 -1°C° 1.3 mm 3 mps 741 mmHg 94%
    13:00 0°C° 1.3 mm 3 mps 740 mmHg 96%
    14:00 -1°C° 2.3 mm 4 mps 738 mmHg 95%
    15:00 0°C° 2.3 mm 5 mps 736 mmHg 95%
    16:00 +1°C° 2.3 mm 5 mps 735 mmHg 95%
    17:00 +4°C° 0.3 mm 6 mps 734 mmHg 92%
    18:00 +8°C° 0.3 mm 7 mps 732 mmHg 90%
    19:00 +11°C° 0.3 mm 8 mps 731 mmHg 87%
    20:00 +11°C° 0.7 mm 8 mps 731 mmHg 88%
    21:00 +12°C° 0.7 mm 8 mps 731 mmHg 89%
    22:00 +13°C° 0.7 mm 8 mps 731 mmHg 89%
    23:00 +11°C° 1.6 mm 7 mps 731 mmHg 88%

    17 December, Tuesday

    Time Temperature Precipitation Wind Pressure Humidity
    00:00 +9°C° 1.6 mm 6 mps 732 mmHg 86%
    01:00 +7°C° 1.6 mm 5 mps 732 mmHg 85%
    02:00 +5°C° 0 mm 5 mps 733 mmHg 85%
    03:00 +3°C° 0 mm 6 mps 734 mmHg 85%
    04:00 +1°C° 0 mm 6 mps 735 mmHg 85%
    05:00 -1°C° 0 mm 6 mps 736 mmHg 84%
    06:00 -2°C° 0 mm 6 mps 738 mmHg 83%
    07:00 -4°C° 0 mm 5 mps 739 mmHg 83%
    08:00 -3°C° 0 mm 4 mps 740 mmHg 82%
    09:00 -3°C° 0 mm 4 mps 741 mmHg 80%
    10:00 -2°C° 0 mm 3 mps 743 mmHg 79%
    11:00 -2°C° 0 mm 3 mps 742 mmHg 78%
    12:00 -1°C° 0 mm 3 mps 742 mmHg 76%
    13:00 0°C° 0 mm 3 mps 742 mmHg 74%
    14:00 0°C° 0 mm 3 mps 742 mmHg 74%
    15:00 -1°C° 0 mm 4 mps 742 mmHg 75%
    16:00 -1°C° 0 mm 4 mps 742 mmHg 75%
    17:00 -2°C° 0 mm 4 mps 743 mmHg 78%
    18:00 -2°C° 0 mm 3 mps 743 mmHg 81%
    19:00 -2°C° 0 mm 3 mps 743 mmHg 84%
    20:00 -4°C° 0 mm 3 mps 743 mmHg 84%
    21:00 -4°C° 0 mm 4 mps 743 mmHg 84%
    22:00 -4°C° 0 mm 4 mps 744 mmHg 83%
    23:00 -6°C° 0 mm 5 mps 744 mmHg 81%
    Show more